Pottstown, PA

8:36 PM EST on November 11, 2019 (GMT -0500)
Pottstown Limerick

Weather History for KPTW - October, 2019

Change the Weather History Date:

Wednesday, October 23, 2019

  Actual Average (KRDG) Record (KRDG)
Temperature  
Mean Temperature 52 °F -  
Max Temperature 63 °F 59 °F 88 °F (1979)
Min Temperature 42 °F 39 °F 24 °F (1976)
Degree Days  
Heating Degree Days 12    
Growing Degree Days 2 (Base 50)    
Moisture  
Dew Point 45 °F    
Average Humidity 78    
Maximum Humidity 100    
Minimum Humidity 39    
Precipitation  
Precipitation 0.00 in - - ()
Sea Level Pressure  
Sea Level Pressure 29.98 in    
Wind  
Wind Speed 3 mph (WNW)    
Max Wind Speed 13 mph    
Max Gust Speed 22 mph    
Visibility 7 miles    
Events      
Averages and records for this station are not official NWS values.
T = Trace of Precipitation, MM = Missing Value Source: NWS Daily Summary

Daily Weather History Graph

Daily Weather History Graph

Search for Another Location

Airport or City:

Astronomy

Oct. 23, 2019 Rise Set
Actual Time 7:21 AM EDT 6:11 PM EDT
Civil Twilight 6:53 AM EDT 6:38 PM EDT
Nautical Twilight 6:21 AM EDT 7:10 PM EDT
Astronomical Twilight 5:50 AM EDT 7:42 PM EDT
Moon 1:36 AM EDT (10/23) 4:00 PM EDT (10/23)
Length of Visible Light 11h 45m
Length of Day
10h 49m
Waning Crescent, 27% of the Moon is Illuminated
Oct 23
Waning Crescent
Oct 27
New
Nov 4
First Quarter
Nov 12
Full
Nov 19
Last Quarter

Hourly Weather History & Observations

Time (EDT) Temp. Dew Point Humidity Pressure Visibility Wind Dir Wind Speed Gust Speed Precip Events Conditions
12:54 AM 57.0 °F 57.0 °F 100% 29.83 in 7.0 mi Variable 3.5 mph - N/A   Overcast
1:54 AM 55.0 °F 55.0 °F 100% 29.83 in 5.0 mi Calm Calm - N/A   Scattered Clouds
2:54 AM 53.1 °F 53.1 °F 100% 29.83 in 5.0 mi WNW 4.6 mph - N/A   Clear
3:26 AM 52.0 °F 52.0 °F 100% 29.84 in 4.0 mi Variable 3.5 mph - N/A   Scattered Clouds
3:54 AM 52.0 °F 52.0 °F 100% 29.84 in 3.0 mi Calm Calm - N/A   Scattered Clouds
4:30 AM 51.1 °F 51.1 °F 100% 29.86 in 3.0 mi Calm Calm - N/A   Mostly Cloudy
4:45 AM 51.1 °F 51.1 °F 100% 29.87 in 2.0 mi Calm Calm - N/A   Overcast
4:54 AM 51.1 °F 51.1 °F 100% 29.87 in 4.0 mi WNW 3.5 mph - N/A   Mostly Cloudy
5:06 AM 50.0 °F 50.0 °F 100% 29.88 in 4.0 mi Calm Calm - N/A   Scattered Clouds
5:54 AM 50.0 °F 50.0 °F 100% 29.89 in 5.0 mi Calm Calm - N/A   Clear
6:54 AM 48.9 °F 48.9 °F 100% 29.92 in 7.0 mi Calm Calm - N/A   Clear
7:54 AM 48.9 °F 48.9 °F 100% 29.95 in 6.0 mi Calm Calm - N/A   Clear
8:54 AM 52.0 °F 51.1 °F 97% 29.99 in 8.0 mi Calm Calm - N/A   Clear
9:54 AM 55.9 °F 50.0 °F 80% 30.00 in 9.0 mi Variable 5.8 mph - N/A   Clear
10:54 AM 57.0 °F 43.0 °F 59% 30.01 in 10.0 mi WNW 10.4 mph 18.4 mph N/A   Clear
11:54 AM 59.0 °F 42.1 °F 53% 30.02 in 10.0 mi WNW 8.1 mph 19.6 mph N/A   Clear
12:54 PM 61.0 °F 37.9 °F 42% 30.02 in 10.0 mi West 12.7 mph 21.9 mph N/A   Clear
1:54 PM 62.1 °F 37.9 °F 41% 30.01 in 9.0 mi WNW 10.4 mph 19.6 mph N/A   Clear
2:54 PM 62.1 °F 37.0 °F 39% 30.02 in 10.0 mi West 8.1 mph 19.6 mph N/A   Clear
3:54 PM 62.1 °F 37.0 °F 39% 30.03 in 10.0 mi WNW 8.1 mph 17.3 mph N/A   Clear
4:54 PM 61.0 °F 36.0 °F 39% 30.04 in 9.0 mi WNW 8.1 mph 16.1 mph N/A   Clear
5:54 PM 59.0 °F 36.0 °F 42% 30.07 in 9.0 mi Variable 4.6 mph - N/A   Clear
7:54 PM 53.1 °F 35.1 °F 50% 30.14 in 10.0 mi Calm Calm - N/A   Clear
8:54 PM 45.0 °F 39.0 °F 80% 30.17 in 10.0 mi Calm Calm - N/A   Clear
9:54 PM 43.0 °F 39.0 °F 86% 30.19 in 10.0 mi Calm Calm - N/A   Clear
10:54 PM 43.0 °F 37.0 °F 80% 30.21 in 10.0 mi Calm Calm - N/A   Clear
11:54 PM 42.1 °F 37.0 °F 82% 30.22 in 10.0 mi Calm Calm - N/A   Clear